Hourly Weather Rulevo

Today, 13 April, Tuesday

Time Temperature Precipitation Wind Pressure Humidity
00:00 +12°C° 0 mm 1 mps 738 mmHg 83%
01:00 +12°C° 0 mm 2 mps 738 mmHg 86%
02:00 +10°C° 0 mm 2 mps 738 mmHg 89%
03:00 +9°C° 0 mm 3 mps 738 mmHg 90%
04:00 +9°C° 0 mm 3 mps 739 mmHg 91%
05:00 +7°C° 0 mm 4 mps 739 mmHg 93%
06:00 +6°C° 0.1 mm 4 mps 739 mmHg 92%
07:00 +6°C° 0.1 mm 5 mps 739 mmHg 92%
08:00 +5°C° 0.1 mm 5 mps 740 mmHg 91%
09:00 +5°C° 0 mm 5 mps 740 mmHg 90%
10:00 +3°C° 0 mm 5 mps 740 mmHg 89%
11:00 +3°C° 0 mm 5 mps 740 mmHg 87%
12:00 +3°C° 0 mm 5 mps 740 mmHg 87%
13:00 +3°C° 0 mm 5 mps 740 mmHg 86%
14:00 +3°C° 0 mm 5 mps 740 mmHg 85%
15:00 +2°C° 0.2 mm 5 mps 740 mmHg 88%
16:00 +1°C° 0.2 mm 5 mps 740 mmHg 91%
17:00 +1°C° 0.2 mm 5 mps 740 mmHg 93%
18:00 0°C° 0.9 mm 4 mps 740 mmHg 95%
19:00 0°C° 0.9 mm 4 mps 740 mmHg 96%
20:00 -1°C° 0.9 mm 4 mps 740 mmHg 97%
21:00 -1°C° 0.9 mm 4 mps 739 mmHg 98%
22:00 -1°C° 0.9 mm 4 mps 739 mmHg 98%
23:00 -1°C° 0.9 mm 4 mps 739 mmHg 98%

Tomorrow, 14 April, Wednesday

Time Temperature Precipitation Wind Pressure Humidity
00:00 -1°C° 0.9 mm 4 mps 739 mmHg 98%
01:00 -1°C° 0.9 mm 4 mps 738 mmHg 98%
02:00 -1°C° 0.9 mm 4 mps 738 mmHg 98%
03:00 -2°C° 1.4 mm 4 mps 738 mmHg 98%
04:00 -2°C° 1.4 mm 4 mps 738 mmHg 98%
05:00 -2°C° 1.4 mm 4 mps 737 mmHg 98%
06:00 -2°C° 1.5 mm 5 mps 738 mmHg 98%
07:00 -2°C° 1.5 mm 5 mps 738 mmHg 98%
08:00 -2°C° 1.5 mm 5 mps 738 mmHg 98%
09:00 -2°C° 1.4 mm 5 mps 738 mmHg 99%
10:00 -2°C° 1.4 mm 5 mps 738 mmHg 99%
11:00 -2°C° 1.4 mm 5 mps 738 mmHg 99%
12:00 -2°C° 1 mm 5 mps 738 mmHg 99%
13:00 -2°C° 1 mm 5 mps 738 mmHg 99%
14:00 -2°C° 1 mm 5 mps 738 mmHg 99%
15:00 -2°C° 1 mm 5 mps 738 mmHg 99%
16:00 -2°C° 1 mm 5 mps 738 mmHg 99%
17:00 -2°C° 1 mm 5 mps 738 mmHg 99%
18:00 -2°C° 0.7 mm 5 mps 738 mmHg 99%
19:00 -2°C° 0.7 mm 4 mps 738 mmHg 99%
20:00 -2°C° 0.7 mm 4 mps 738 mmHg 99%
21:00 -2°C° 0.5 mm 4 mps 738 mmHg 99%
22:00 -2°C° 0.5 mm 4 mps 738 mmHg 99%
23:00 -2°C° 0.5 mm 4 mps 737 mmHg 99%

Day after tomorrow, 15 April, Thursday

Time Temperature Precipitation Wind Pressure Humidity
00:00 -2°C° 0.3 mm 4 mps 737 mmHg 99%
01:00 -2°C° 0.3 mm 4 mps 737 mmHg 99%
02:00 -2°C° 0.3 mm 4 mps 737 mmHg 99%
03:00 -2°C° 0.2 mm 4 mps 737 mmHg 99%
04:00 -2°C° 0.2 mm 4 mps 737 mmHg 99%
05:00 -2°C° 0.2 mm 4 mps 737 mmHg 99%
06:00 -2°C° 0.2 mm 4 mps 737 mmHg 99%
07:00 -2°C° 0.2 mm 4 mps 737 mmHg 99%
08:00 -2°C° 0.2 mm 4 mps 737 mmHg 99%
09:00 -2°C° 0.3 mm 4 mps 737 mmHg 99%
10:00 -2°C° 0.3 mm 4 mps 737 mmHg 99%
11:00 -2°C° 0.3 mm 4 mps 738 mmHg 99%
12:00 -2°C° 0.2 mm 4 mps 738 mmHg 99%
13:00 -2°C° 0.2 mm 4 mps 738 mmHg 99%
14:00 -2°C° 0.2 mm 4 mps 738 mmHg 99%
15:00 -2°C° 0.3 mm 4 mps 738 mmHg 99%
16:00 -2°C° 0.3 mm 4 mps 738 mmHg 99%
17:00 -2°C° 0.3 mm 4 mps 738 mmHg 99%
18:00 -2°C° 0.5 mm 4 mps 738 mmHg 99%
19:00 -2°C° 0.5 mm 4 mps 738 mmHg 99%
20:00 -2°C° 0.5 mm 4 mps 738 mmHg 99%
21:00 -2°C° 0.7 mm 4 mps 738 mmHg 99%
22:00 -2°C° 0.7 mm 5 mps 738 mmHg 99%
23:00 -2°C° 0.7 mm 5 mps 738 mmHg 99%

16 April, Friday

Time Temperature Precipitation Wind Pressure Humidity
00:00 -2°C° 1 mm 5 mps 737 mmHg 99%
01:00 -2°C° 1 mm 5 mps 737 mmHg 99%
02:00 -2°C° 1 mm 5 mps 737 mmHg 99%
03:00 -3°C° 1.9 mm 6 mps 736 mmHg 99%
04:00 -3°C° 1.9 mm 6 mps 736 mmHg 99%
05:00 -3°C° 1.9 mm 6 mps 736 mmHg 99%
06:00 -2°C° 2.1 mm 5 mps 736 mmHg 99%
07:00 -2°C° 2.1 mm 5 mps 736 mmHg 99%
08:00 -2°C° 2.1 mm 5 mps 736 mmHg 99%
09:00 -2°C° 0.8 mm 5 mps 737 mmHg 99%
10:00 -1°C° 0.8 mm 5 mps 737 mmHg 99%
11:00 -1°C° 0.8 mm 5 mps 737 mmHg 99%
12:00 -1°C° 0.4 mm 5 mps 737 mmHg 99%
13:00 -1°C° 0.4 mm 5 mps 737 mmHg 99%
14:00 -2°C° 0.4 mm 6 mps 737 mmHg 99%
15:00 -1°C° 0.9 mm 5 mps 737 mmHg 99%
16:00 -1°C° 0.9 mm 5 mps 738 mmHg 99%
17:00 -1°C° 0.9 mm 5 mps 738 mmHg 99%
18:00 -1°C° 0.9 mm 5 mps 738 mmHg 99%
19:00 -1°C° 0.9 mm 5 mps 738 mmHg 99%
20:00 -1°C° 0.9 mm 5 mps 738 mmHg 99%
21:00 -1°C° 0.1 mm 5 mps 739 mmHg 99%
22:00 -1°C° 0.1 mm 5 mps 739 mmHg 99%
23:00 -1°C° 0.1 mm 5 mps 739 mmHg 99%

17 April, Saturday

Time Temperature Precipitation Wind Pressure Humidity
00:00 -1°C° 0 mm 4 mps 739 mmHg 99%
01:00 -1°C° 0 mm 4 mps 739 mmHg 99%
02:00 -1°C° 0 mm 4 mps 739 mmHg 99%
03:00 -1°C° 0.3 mm 4 mps 739 mmHg 99%
04:00 0°C° 0.3 mm 3 mps 739 mmHg 99%
05:00 0°C° 0.3 mm 3 mps 739 mmHg 99%
06:00 0°C° 0.7 mm 3 mps 740 mmHg 99%
07:00 0°C° 0.7 mm 3 mps 740 mmHg 99%
08:00 +1°C° 0.7 mm 2 mps 740 mmHg 99%
09:00 +2°C° 0.1 mm 2 mps 740 mmHg 98%
10:00 +2°C° 0.1 mm 2 mps 740 mmHg 97%
11:00 +3°C° 0.1 mm 2 mps 741 mmHg 96%
12:00 +3°C° 0.1 mm 2 mps 741 mmHg 95%
13:00 +4°C° 0.1 mm 2 mps 741 mmHg 95%
14:00 +4°C° 0.1 mm 2 mps 741 mmHg 94%
15:00 +5°C° 0 mm 1 mps 741 mmHg 95%
16:00 +5°C° 0 mm 1 mps 741 mmHg 95%
17:00 +4°C° 0 mm 1 mps 741 mmHg 96%
18:00 +4°C° 0 mm 1 mps 741 mmHg 97%
19:00 +4°C° 0 mm 1 mps 742 mmHg 98%
20:00 +3°C° 0 mm 1 mps 742 mmHg 98%
21:00 +3°C° 0 mm 1 mps 742 mmHg 98%
22:00 +3°C° 0 mm 1 mps 742 mmHg 99%
23:00 +3°C° 0 mm 1 mps 742 mmHg 99%

18 April, Sunday

Time Temperature Precipitation Wind Pressure Humidity
00:00 +3°C° 0 mm 1 mps 742 mmHg 99%
01:00 +2°C° 0 mm 1 mps 742 mmHg 99%
02:00 +2°C° 0 mm 1 mps 742 mmHg 99%
03:00 +2°C° 0 mm 1 mps 742 mmHg 99%
04:00 +2°C° 0 mm 1 mps 742 mmHg 99%
05:00 +2°C° 0 mm 1 mps 742 mmHg 99%
06:00 +3°C° 0 mm 1 mps 742 mmHg 98%
07:00 +2°C° 0 mm 2 mps 742 mmHg 98%
08:00 +2°C° 0 mm 2 mps 742 mmHg 97%
09:00 +3°C° 0 mm 2 mps 742 mmHg 95%
10:00 +2°C° 0 mm 3 mps 743 mmHg 94%
11:00 +3°C° 0 mm 3 mps 743 mmHg 92%
12:00 +3°C° 0 mm 3 mps 743 mmHg 90%
13:00 +4°C° 0 mm 4 mps 743 mmHg 89%
14:00 +4°C° 0 mm 4 mps 743 mmHg 88%
15:00 +4°C° 0 mm 4 mps 743 mmHg 88%
16:00 +4°C° 0 mm 4 mps 743 mmHg 89%
17:00 +4°C° 0 mm 3 mps 743 mmHg 90%
18:00 +4°C° 0 mm 3 mps 743 mmHg 91%
19:00 +3°C° 0 mm 3 mps 743 mmHg 92%
20:00 +3°C° 0 mm 3 mps 743 mmHg 93%
21:00 +4°C° 0 mm 2 mps 743 mmHg 94%
22:00 +4°C° 0 mm 2 mps 743 mmHg 94%
23:00 +4°C° 0 mm 2 mps 743 mmHg 95%
Show more